Content
SEND FEEDBACK

Daily
Averages
Monthly
Summary
United States of America

COOK STATION, MISSOURI


Home > North America > United States > Missouri
Elevation: 990 feet     Latitude: 37 49N     Longitude: 091 26W

WEATHER
 
SELECT A DAY
Number of Records: 204,736;   Date Range: 1/1/95 - 10/19/14
 
SHARE

PRINT THIS DATA

[ ← Previous Day ]
WEATHER ALMANAC - FEBRUARY 13, 2013
[ Next Day → ]
[ °C ]   °F
Weather ElementAverageHighLow
Temperature35.7 °F46.9 °F (12:53 pm)30 °F (7:53 am)
Dewpoint31.2 °F34 °F (11:53 am)28.9 °F (7:53 am)
Humidity85.3 %100 % (2:26 am)56 % (12:53 pm)
Barometer29.89 in29.95 in (12:53 am)29.85 in (1:53 pm)
Wind Speed8.5 mph16.1 mph (1:53 pm)
Wind Gust21.9 mph (2:53 pm)
Weather ElementAverage
Visibility6.5 mi
Wind DirectionSW (227.7 °)

Weather ElementTotal
Precipitation---
Heating Degree Days26.6 (Base 65)
Averaged from 35 records on February 13, 2013
WEATHER CONDITIONS BREAKOUT
WIND DIRECTION BREAKOUT
WEATHER BY HOUR - FEBRUARY 13, 2013
[ °C ]   °F
Local TimeTemperatureDewpointHumidityBarometerVisibilityWind DirectionWind SpeedGust SpeedPrecipitationEventsConditions
12:32 AM33.8 °F32.0 °F93 %29.93 in4.0 miSSW (200°)6.9 mph0.00 inMostly Cloudy
12:53 AM33.1 °F32.0 °F96 %29.95 in5.0 miSSW (200°)6.9 mph0.00 inOvercast
1:12 AM33.8 °F32.0 °F93 %29.92 in4.0 miSW (220°)5.8 mphOvercast
1:53 AM33.1 °F32.0 °F96 %29.93 in5.0 miWSW (240°)5.8 mphOvercast
2:06 AM33.8 °F32.0 °F93 %29.91 in6.0 miSW (230°)4.6 mphOvercast
2:26 AM32.0 °F32.0 °F100 %29.90 in4.0 miSW (230°)5.8 mphOvercast
2:39 AM33.8 °F32.0 °F93 %29.90 in2.5 miWSW (240°)4.6 mphOvercast
2:44 AM33.8 °F32.0 °F93 %29.90 in3.0 miWSW (250°)4.6 mphOvercast
2:53 AM33.1 °F32.0 °F96 %29.92 in5.0 miWSW (240°)4.6 mphOvercast
3:53 AM33.1 °F32.0 °F96 %29.89 in5.0 miSSW (200°)5.8 mph0.00 inOvercast
4:22 AM32.0 °F30.2 °F93 %29.86 in2.0 miSW (220°)4.6 mphOvercast
4:34 AM32.0 °F32.0 °F100 %29.86 in1.2 miSW (220°)4.6 mphOvercast
4:53 AM32.0 °F30.9 °F96 %29.88 in0.5 miSW (230°)5.8 mphFogFog
5:53 AM30.9 °F30.0 °F96 %29.89 in0.2 miSW (230°)5.8 mphFogLight Freezing Fog
6:18 AM30.2 °F30.2 °F100 %29.87 in0.5 miSW (230°)8.1 mphFogLight Freezing Fog
6:49 AM30.2 °F30.2 °F100 %29.88 in1.0 miWSW (240°)6.9 mphOvercast
6:53 AM30.9 °F30.0 °F96 %29.91 in2.5 miWSW (250°)6.9 mphMostly Cloudy
7:01 AM30.2 °F30.2 °F100 %29.88 in7.0 miWSW (240°)6.9 mphScattered Clouds
7:53 AM30.0 °F28.9 °F96 %29.92 in10.0 miSW (230°)9.2 mphClear
8:53 AM34.0 °F30.9 °F89 %29.91 in10.0 miSW (220°)10.4 mphClear
9:53 AM37.9 °F33.1 °F83 %29.90 in10.0 miSW (220°)11.5 mphClear
10:53 AM42.1 °F33.1 °F70 %29.89 in10.0 miWSW (240°)10.4 mphClear
11:53 AM46.0 °F34.0 °F63 %29.88 in10.0 miWSW (250°)11.5 mphPartly Cloudy
12:53 PM46.9 °F32.0 °F56 %29.87 in10.0 miWest (270°)15.0 mphClear
1:53 PM46.9 °F33.1 °F59 %29.85 in10.0 miWSW (250°)16.1 mphPartly Cloudy
2:53 PM45.0 °F32.0 °F60 %29.86 in10.0 miWSW (240°)12.7 mph21.9 mphPartly Cloudy
3:53 PM45.0 °F32.0 °F60 %29.86 in10.0 miWSW (240°)12.7 mphClear
4:53 PM43.0 °F30.9 °F62 %29.86 in10.0 miSW (230°)15.0 mphClear
5:53 PM39.0 °F30.9 °F73 %29.86 in10.0 miSW (220°)10.4 mphClear
6:53 PM36.0 °F30.0 °F79 %29.87 in10.0 miSW (220°)9.2 mphClear
7:53 PM34.0 °F28.9 °F82 %29.89 in10.0 miSSW (210°)9.2 mphClear
8:53 PM34.0 °F30.0 °F85 %29.88 in10.0 miSSW (210°)9.2 mphClear
9:53 PM35.1 °F30.0 °F82 %29.88 in10.0 miSSW (200°)9.2 mphClear
10:53 PM36.0 °F30.0 °F79 %29.87 in10.0 miSSW (200°)10.4 mphClear
11:53 PM35.1 °F28.9 °F78 %29.86 in10.0 miSSW (210°)11.5 mphClear
Hourly data recorded from KVIH, located miles away from Cook Station, Missouri







STORIES FROM OUR PARTNERS